Flag for Switzerland Weather past 2 weeks in Kriens, Lucerne, Switzerland

Now
28 °F

Chilly.


Feels Like: 28 °F
Forecast: 34 / 52 °F
Wind: 2 mph from Southwest

Location: Giswil

Current Time: Dec 22, 2014 at 9:01:23 PM

Latest Report: Dec 22, 2014 at 8:00 PM


Visibility: N/A

Pressure: 30.50 "Hg

Humidity: 100%

Dew point: 28 °F

Location of KriensLocation

Historic Weather in Kriens — Graph

°F

Kriens temperature yesterday

Maximum temperature yesterday: 44 °F (at 2:00 PM)
Minimum temperature yesterday: 28 °F (at 11:00 PM)
Average temperature yesterday: 37 °F

Past Weeks' High & Low Weather Summary

 TemperatureHumidityPressure
High50 °F (Dec 19, 10:00 PM)100% (Dec 7, 7:00 PM)30.65 "Hg (Dec 7, 7:00 PM)
Low25 °F (Dec 22, 6:00 AM)48% (Dec 11, 7:00 PM)29.90 "Hg (Dec 12, 9:00 PM)
Average39 °F94%30.22 "Hg
* Reported Dec 7 7:00 PM — Dec 22 7:00 PM, Kriens, Weather by CustomWeather, © 2014

Note: Actual official high and low records may vary slightly from our data, if they occured in-between our weather recording intervals... More about our weather records

Advertising

Kriens weather history for previous 24 hours

 ConditionsComfort  
Time TempWeatherWind HumidityBarometerVisibility
7:00 PM
Dec 22
28 °FChilly.2 mph100%30.48 "HgN/A
6:00 PM30 °FChilly.3 mph100%30.49 "HgN/A
5:00 PM32 °FChilly.1 mph100%30.48 "HgN/A
4:00 PM34 °FChilly.2 mph98%30.48 "HgN/A
3:00 PM39 °FChilly.No wind78%30.47 "HgN/A
2:00 PM40 °FChilly.2 mph75%30.46 "HgN/A
1:00 PM38 °FChilly.2 mph81%30.49 "HgN/A
12:00 PM33 °FChilly.2 mph100%30.53 "HgN/A
11:00 AM30 °FChilly.1 mph100%30.57 "HgN/A
10:00 AM26 °FChilly.1 mph100%30.57 "HgN/A
9:00 AM25 °FChilly.1 mph100%30.55 "HgN/A
8:00 AM25 °FChilly.1 mph100%30.56 "HgN/A
7:00 AM25 °FChilly.3 mph100%30.57 "HgN/A
6:00 AM25 °FChilly.2 mph100%30.56 "HgN/A
5:00 AM27 °FChilly.2 mph100%30.56 "HgN/A
3:00 AM26 °FChilly.No wind100%30.57 "HgN/A
2:00 AM28 °FChilly.2 mph100%30.60 "HgN/A
1:00 AM27 °FChilly.2 mph100%30.60 "HgN/A
12:00 AM27 °FChilly.1 mph100%30.61 "HgN/A
11:00 PM
Dec 21
28 °FChilly.1 mph100%30.62 "HgN/A
9:00 PM28 °FChilly.2 mph100%30.64 "HgN/A
Weather by CustomWeather, © 2014

See weather overviewHow to use our weather pages